Wind_Speed
26 25 24 25 25 25 24 25 24 24 25 25 20 19 21 22 25 32 32 29 27 25 25 22 21 20 20 21 24 23 26 31 39 39 29 26 34 25 34 34 30 31 26 23 27 27 25 29 29 29 25 25 23 16
28 28 27 24 26 25 26 26 25 25 26 25 18 17 18 21 20 35 33 30 27 25 24 21 19 20 22 23 22 26 26 29 36 41 41 38 30 29 27 28 29 32 38 29 27 25 31 36 37 35 33 31 28 23
30 31 28 27 28 24 26 26 25 24 26 25 16 15 16 20 21 38 33 31 28 25 25 23 21 20 21 22 22 20 22 27 31 36 39 40 38 36 35 32 36 35 35 40 41 37 43 44 42 43 41 38 36 31
29 31 30 30 28 23 25 25 25 25 24 23 16 14 15 19 25 41 36 33 30 26 24 25 25 22 21 21 20 21 21 22 25 31 33 33 36 38 41 38 37 37 34 38 38 35 37 42 42 42 45 45 41 34
31 31 32 32 28 25 24 24 25 25 23 20 14 13 13 17 21 41 36 33 31 28 25 24 24 24 22 22 22 24 23 25 24 27 27 28 31 32 36 32 32 31 31 31 33 38 36 40 39 40 42 42 44 45
29 32 33 31 30 27 24 24 26 23 21 18 15 14 13 14 19 36 36 31 30 28 25 25 23 24 22 22 22 23 25 25 23 25 27 27 25 28 30 31 27 27 29 32 35 36 33 35 36 37 38 39 38 38
31 34 32 30 31 27 24 25 25 23 20 18 16 16 16 16 19 33 38 33 29 28 26 25 24 23 23 25 23 23 24 26 26 25 24 25 26 29 27 23 22 30 33 36 36 37 37 34 37 36 35 34 32 33
35 33 34 32 30 27 24 25 24 24 21 19 17 18 18 18 21 26 40 38 34 29 27 26 25 24 23 24 24 25 25 27 27 25 23 24 25 26 23 14 23 31 32 32 31 31 31 32 34 37 35 33 32 33
33 31 32 31 28 27 26 24 27 25 23 20 18 20 20 20 20 23 37 40 37 39 31 24 25 28 25 24 23 25 27 28 29 26 24 24 23 21 19 21 26 31 30 27 25 29 30 31 33 38 40 36 35 35
36 33 33 31 30 28 29 30 32 25 24 21 19 21 20 20 22 24 26 40 41 38 37 26 27 29 27 25 24 24 25 27 28 27 25 23 20 19 22 21 23 26 25 24 23 22 20 25 26 29 31 31 32 34
35 35 34 30 31 30 32 30 25 24 24 23 20 22 22 23 23 27 29 31 38 35 33 32 31 29 27 25 25 25 25 26 26 26 24 21 17 19 18 18 20 23 25 23 19 21 19 18 19 19 21 24 27 29
31 33 33 33 33 36 33 28 25 24 24 24 21 24 26 26 28 30 32 34 35 34 32 35 34 30 28 26 26 25 25 28 27 27 25 21 21 17 14 14 14 18 22 23 21 20 20 17 16 17 18 21 20 21
33 32 34 33 35 31 25 23 24 23 25 26 24 28 30 31 34 33 31 33 34 33 30 34 34 33 29 28 27 26 27 25 26 28 25 25 22 19 17 14 13 13 15 15 13 15 17 17 16 15 15 14 12 15
34 34 33 33 28 26 26 24 23 24 26 28 27 32 35 36 33 26 23 25 31 33 34 36 30 32 31 30 30 29 28 26 26 25 24 28 26 23 20 18 15 13 12 13 11 12 13 14 13 13 14 12 10 8
33 32 28 26 26 27 26 25 24 25 29 30 30 34 34 30 29 29 25 25 31 34 31 32 35 34 33 35 33 31 30 28 22 22 26 23 26 28 25 21 19 14 13 11 9 11 11 11 13 12 10 11 12 9
32 30 26 26 27 27 27 28 29 29 31 32 31 30 30 30 30 30 27 26 30 33 33 32 31 34 35 36 36 34 32 27 24 20 19 21 25 27 28 28 25 21 17 16 14 12 10 8 9 13 13 13 15 15
28 27 25 27 30 28 28 30 31 32 34 32 26 26 31 34 32 30 30 28 27 30 32 35 37 36 33 35 34 33 28 27 22 23 22 23 25 28 29 29 28 26 25 23 22 22 20 17 12 10 11 10 9 11
32 30 30 32 31 30 30 31 33 34 33 27 22 28 32 33 32 31 31 30 29 27 29 33 33 37 35 32 29 30 28 27 27 26 27 27 26 28 29 30 29 27 26 24 23 22 23 22 20 17 13 13 11 11
28 30 31 32 32 32 32 33 32 32 29 25 23 28 33 32 32 33 33 32 30 33 30 32 37 34 33 32 29 30 30 31 30 29 28 27 25 25 26 27 28 28 26 24 22 22 21 20 20 20 17 18 15 17
31 32 31 32 32 32 32 32 30 30 28 25 26 29 33 33 32 31 34 35 31 31 36 34 33 38 27 33 27 27 29 29 29 28 27 26 25 24 25 26 27 28 27 25 23 21 21 21 23 24 23 19 24 19
30 31 32 32 29 29 30 29 28 28 28 27 28 30 34 35 34 32 31 37 42 37 34 32 35 32 40 33 35 32 29 31 31 29 28 27 25 26 26 26 25 26 26 25 24 23 22 22 22 23 24 26 31 28
30 30 30 29 26 25 24 25 26 26 27 28 30 32 32 36 36 35 36 36 38 40 39 36 31 33 36 29 32 31 31 32 31 29 28 27 26 25 24 23 24 24 22 22 21 21 23 25 25 25 24 20 23 24
27 26 24 23 21 20 22 22 23 23 24 28 33 34 33 34 38 35 37 35 35 39 44 45 37 41 38 36 36 36 36 35 33 30 28 28 26 25 24 24 24 23 21 19 18 17 19 22 24 19 16 22 26 25
20 21 22 22 21 19 19 19 20 21 21 20 25 33 37 36 37 38 33 36 34 41 45 45 41 39 38 37 37 37 35 35 35 32 29 27 25 22 22 22 21 19 17 16 18 16 15 15 16 17 20 25 28 25
18 20 20 19 20 20 19 17 17 17 18 18 19 23 29 34 35 36 33 36 38 38 40 43 44 39 35 31 32 37 40 37 37 34 31 27 25 22 23 22 19 19 18 18 18 19 16 13 16 18 22 32 28 26
15 15 16 16 18 19 19 19 17 16 15 15 17 17 20 26 31 28 33 36 35 34 35 39 41 38 36 33 33 35 34 35 35 35 33 29 26 25 24 23 20 21 19 18 20 20 17 13 12 12 23 19 27 28
14 16 17 20 21 20 20 21 21 20 18 16 15 15 14 16 22 25 34 38 37 34 34 35 36 36 35 34 34 33 30 35 36 36 34 30 28 27 26 26 23 21 19 18 17 17 19 14 13 16 17 18 25 27
12 12 14 15 16 17 18 20 21 22 23 21 20 19 14 11 12 19 26 33 36 36 36 36 36 37 38 36 36 35 35 37 37 36 34 31 31 31 29 28 26 23 22 20 20 17 16 15 13 14 16 15 17 25
4 4 6 8 11 14 16 18 18 19 22 24 22 20 16 16 17 16 21 27 32 37 39 39 37 36 36 36 36 37 37 40 40 34 31 32 33 32 30 30 29 26 24 23 22 20 18 17 15 13 12 14 17 21
8 8 7 6 6 6 8 7 11 11 12 14 17 20 22 23 24 22 21 20 24 28 34 37 39 39 37 36 34 33 36 37 37 34 32 32 32 31 29 30 30 28 26 24 23 20 19 18 20 19 18 15 13 20
9 8 8 9 11 10 10 12 14 15 17 18 18 16 19 26 31 31 29 27 26 26 27 28 30 35 37 36 36 36 37 37 36 34 33 33 32 32 30 29 29 28 27 26 24 24 22 20 19 20 20 19 16 13
15 19 19 18 17 16 15 7 10 13 15 17 20 21 24 29 29 28 25 28 31 34 32 32 33 33 35 37 37 36 37 38 36 35 34 33 32 30 30 29 29 29 28 27 27 26 25 23 21 22 22 22 20 19
13 16 12 11 14 9 8 12 14 12 9 11 16 21 22 21 23 25 33 34 32 31 34 38 38 38 38 37 38 39 38 37 36 35 35 35 34 32 30 28 28 27 27 27 27 25 25 25 25 24 23 23 22 20
Wind_Direction
320 322 324 329 330 329 329 324 323 320 314 311 288 262 257 247 228 214 205 212 214 214 219 221 221 221 222 224 226 229 226 221 221 227 225 229 221 244 232 233 227 229 233 241 242 239 241 247 252 253 254 255 268 262
315 318 320 319 329 327 327 327 324 324 319 315 291 264 255 231 233 201 205 209 212 215 218 220 221 221 223 228 231 229 237 232 225 223 231 228 234 237 233 240 258 249 241 229 243 236 247 248 254 255 257 261 266 261
311 318 317 319 322 323 326 324 323 322 322 317 290 260 253 232 223 199 206 209 213 216 221 222 223 222 224 227 230 231 231 227 226 228 233 238 241 242 245 247 241 247 240 244 247 252 251 254 254 255 256 260 265 268
310 314 318 317 321 318 323 327 321 322 322 315 287 257 250 243 228 203 207 210 213 218 223 226 226 226 228 231 231 228 228 227 229 230 230 234 239 242 247 250 255 252 252 248 248 246 248 250 250 252 256 259 262 262
309 309 312 314 315 314 320 326 326 319 319 314 281 257 249 241 232 206 208 211 214 219 224 229 226 225 230 232 229 230 233 233 231 231 230 232 242 246 241 243 243 246 251 246 243 249 253 254 256 252 253 256 258 261
304 309 311 311 312 311 315 323 325 319 315 309 274 252 239 233 227 207 208 212 215 218 223 230 231 226 229 232 236 234 233 238 237 234 235 241 244 243 243 247 252 253 254 250 248 250 251 252 252 256 255 252 255 257
297 305 304 309 308 305 311 318 321 316 309 304 270 250 238 232 225 215 207 211 213 216 220 226 232 227 229 230 238 239 238 237 239 240 241 245 246 250 251 255 257 252 248 246 247 250 251 252 242 249 251 250 250 251
303 302 298 302 303 300 304 312 316 311 305 300 270 247 240 234 230 223 211 213 215 218 221 224 230 231 230 231 238 242 239 240 241 242 242 247 249 253 265 258 232 237 241 244 247 252 252 250 242 244 249 249 246 246
302 302 297 298 300 298 301 307 312 305 298 294 276 248 241 234 228 228 219 215 218 220 223 226 230 231 232 238 239 240 240 239 237 239 241 246 253 261 258 240 241 247 251 255 259 262 261 255 247 244 244 251 251 248
296 295 297 295 296 293 295 298 302 295 289 284 273 249 239 234 226 222 224 222 221 224 221 224 232 229 232 236 239 239 239 236 233 235 239 246 254 255 249 246 247 255 257 264 266 268 258 254 245 244 247 252 254 257
290 290 291 292 297 298 302 299 290 288 281 276 266 241 234 230 224 226 228 226 225 225 217 223 233 230 227 231 234 235 238 238 234 234 232 238 248 249 255 257 254 255 258 263 266 257 256 254 247 251 250 251 254 256
291 289 285 291 295 299 300 289 281 278 271 272 260 239 231 228 227 232 230 229 224 218 215 221 225 228 228 228 230 236 240 240 237 232 231 234 240 245 252 254 258 257 255 261 268 254 246 247 250 254 255 257 261 267
287 289 288 292 299 294 288 280 277 271 268 266 253 236 229 229 230 231 234 236 229 219 215 209 215 223 222 230 228 233 242 242 234 230 228 234 238 240 243 244 261 274 262 260 257 244 239 242 241 252 261 263 264 268
280 283 286 290 286 286 285 281 275 269 266 263 250 240 230 232 233 238 247 239 222 217 212 211 215 220 222 227 229 233 238 240 235 229 227 231 235 237 239 242 252 276 270 252 256 243 240 239 236 249 254 255 265 275
276 275 281 282 282 280 281 278 273 267 264 260 253 241 236 235 235 238 240 230 219 215 215 220 222 220 223 229 230 231 232 236 235 233 234 235 237 240 239 240 244 257 255 255 254 234 243 225 220 220 232 230 246 252
269 271 275 275 284 284 280 276 274 267 263 258 256 248 235 235 235 236 237 231 222 223 222 214 214 221 228 232 232 235 236 237 237 231 232 234 238 239 239 241 242 245 247 246 237 241 253 251 231 227 239 240 240 246
258 267 268 278 277 283 281 276 273 268 262 262 261 245 236 236 237 236 234 231 224 222 223 223 218 222 228 232 231 234 235 235 237 234 233 231 234 240 242 241 243 245 248 248 249 256 261 268 261 242 243 255 242 236
261 266 266 281 283 284 279 275 269 264 263 261 252 237 237 236 237 236 234 229 225 220 221 218 220 223 229 233 231 235 235 237 238 238 236 236 235 236 241 243 243 244 247 247 250 253 259 257 257 252 249 247 244 244
266 264 271 279 282 281 276 270 264 263 261 254 245 233 237 236 235 236 235 228 230 219 216 220 224 221 220 227 226 229 232 234 235 235 236 238 239 241 244 245 245 245 248 252 252 248 250 255 254 254 274 251 248 248
267 273 275 280 279 274 269 263 258 259 253 249 242 238 234 235 233 234 232 219 220 226 223 218 212 212 214 217 218 220 227 231 233 233 234 238 239 240 244 245 244 243 244 248 250 253 255 256 258 258 268 258 251 253
272 277 279 280 275 268 262 259 253 255 250 246 242 240 234 233 234 230 228 222 218 218 221 217 214 219 210 220 222 226 234 226 229 235 233 235 237 238 243 242 241 240 241 244 250 256 256 255 255 268 257 253 254 237
275 273 272 271 265 259 256 254 250 252 252 246 243 243 240 234 236 235 230 226 223 218 219 215 214 220 215 215 214 221 222 221 223 228 231 234 235 236 240 243 243 244 245 245 246 254 255 244 254 267 263 242 209 208
264 262 260 258 258 256 255 255 254 253 256 250 244 243 244 241 237 239 231 228 225 222 217 217 220 214 215 216 214 218 216 219 221 228 234 234 234 237 238 238 241 243 243 241 241 252 240 245 266 250 230 210 202 213
255 255 255 253 250 251 250 252 256 260 259 259 254 246 244 243 236 235 235 225 223 223 218 218 212 210 217 224 222 217 222 227 232 237 236 231 230 230 226 228 225 233 231 233 246 252 252 265 247 234 218 211 214 220
255 252 252 244 242 248 254 256 258 263 267 265 266 259 246 236 229 229 232 223 222 224 221 216 214 215 223 225 219 216 220 227 233 231 224 223 222 219 221 220 220 229 237 244 247 245 263 261 252 244 231 212 209 216
254 255 253 251 251 250 251 255 257 257 261 268 268 264 247 233 223 230 221 216 213 215 216 213 214 220 221 220 220 225 231 225 218 215 219 218 218 219 223 226 226 233 237 241 245 245 251 267 242 224 208 221 209 205
262 258 253 254 254 253 253 253 254 256 256 255 259 256 253 242 227 218 213 212 214 212 209 209 211 215 219 222 224 224 221 214 214 217 219 218 218 222 224 227 228 235 238 237 241 245 241 255 233 222 214 203 203 204
281 274 267 262 256 251 251 251 250 250 252 252 249 252 250 234 229 222 216 214 215 217 218 219 220 222 221 221 223 224 220 216 217 220 220 222 224 225 226 229 235 236 235 231 231 234 234 237 236 226 224 215 214 214
312 296 288 268 255 247 249 253 255 257 254 254 256 256 256 252 248 229 221 217 216 218 217 218 221 219 219 222 222 222 221 220 220 221 220 222 225 226 226 229 234 234 230 222 224 230 228 227 229 236 238 228 225 223
312 310 304 287 274 267 270 271 264 264 258 252 246 241 238 241 240 236 233 226 219 217 219 220 217 217 217 217 218 218 216 215 216 218 221 220 219 219 220 224 227 227 225 220 220 223 227 226 224 232 232 231 241 225
344 336 327 313 304 306 292 278 271 269 266 261 253 248 246 245 242 236 233 232 229 224 217 214 215 216 213 212 214 213 210 209 210 210 211 215 215 216 217 221 224 224 222 221 223 225 226 227 225 227 234 234 234 240
4 359 353 337 317 307 304 333 300 297 303 298 290 277 256 249 248 247 240 234 230 226 224 220 215 214 213 209 207 206 206 206 205 205 206 208 211 214 216 219 224 226 225 223 222 223 222 224 226 228 231 234 237 239
358 353 1 19 10 356 338 345 331 310 309 318 304 285 271 262 247 241 238 237 233 226 223 223 219 217 215 212 209 207 206 206 204 203 205 206 206 208 210 213 218 221 222 223 223 221 220 220 222 225 228 230 233 237
Height
5754 5750 5747 5743 5739 5735 5731 5727 5723 5720 5715 5711 5708 5709 5710 5711 5714 5717 5726 5732 5738 5742 5745 5750 5754 5757 5760 5762 5765 5768 5772 5776 5782 5786 5793 5797 5800 5799 5806 5809 5812 5817 5822 5826 5827 5830 5834 5833 5836 5839 5840 5840 5841 5842
5748 5744 5740 5737 5733 5730 5726 5722 5718 5714 5710 5705 5702 5702 5703 5705 5708 5713 5720 5727 5732 5737 5742 5745 5749 5752 5754 5757 5760 5763 5766 5769 5772 5779 5782 5786 5792 5795 5799 5805 5803 5808 5812 5815 5819 5824 5820 5823 5825 5827 5829 5831 5833 5836
5742 5738 5734 5730 5727 5724 5721 5716 5712 5709 5704 5700 5698 5697 5698 5700 5703 5709 5715 5722 5728 5732 5736 5740 5743 5747 5749 5751 5754 5757 5758 5761 5765 5770 5775 5779 5784 5787 5791 5794 5795 5796 5800 5803 5807 5811 5810 5811 5814 5817 5820 5823 5825 5827
5735 5731 5728 5724 5721 5717 5714 5711 5707 5703 5699 5695 5693 5692 5693 5695 5698 5703 5709 5716 5722 5727 5731 5735 5738 5741 5744 5747 5750 5751 5753 5755 5759 5762 5766 5770 5775 5778 5780 5783 5786 5787 5791 5793 5796 5798 5799 5799 5804 5808 5810 5813 5815 5818
5728 5724 5721 5717 5714 5711 5708 5705 5701 5698 5694 5690 5689 5689 5689 5690 5692 5698 5705 5711 5716 5722 5726 5729 5733 5736 5739 5741 5744 5745 5748 5750 5752 5755 5759 5762 5764 5769 5769 5773 5776 5779 5781 5784 5786 5786 5790 5791 5794 5797 5800 5803 5805 5807
5720 5718 5714 5710 5707 5704 5702 5699 5696 5692 5689 5686 5685 5685 5686 5687 5689 5693 5700 5707 5711 5716 5720 5723 5727 5731 5734 5736 5738 5741 5742 5745 5748 5751 5754 5756 5759 5760 5762 5766 5771 5772 5772 5774 5775 5777 5779 5781 5784 5785 5788 5791 5794 5796
5711 5709 5706 5703 5700 5697 5694 5692 5690 5686 5684 5681 5680 5681 5682 5684 5685 5689 5696 5702 5705 5711 5714 5718 5721 5725 5728 5730 5732 5734 5737 5740 5742 5744 5747 5750 5752 5752 5755 5760 5763 5761 5761 5761 5764 5766 5769 5770 5773 5775 5777 5779 5783 5786
5702 5699 5697 5695 5692 5690 5688 5685 5683 5681 5679 5677 5675 5676 5677 5678 5681 5684 5690 5694 5699 5704 5707 5711 5716 5719 5722 5725 5727 5729 5731 5733 5736 5738 5742 5743 5744 5745 5748 5753 5750 5748 5749 5752 5755 5757 5759 5761 5764 5766 5768 5770 5773 5776
5692 5690 5688 5685 5683 5682 5681 5679 5677 5675 5673 5672 5670 5671 5672 5674 5677 5679 5682 5687 5692 5697 5701 5707 5710 5713 5716 5719 5721 5723 5724 5726 5729 5733 5735 5737 5738 5740 5742 5742 5742 5741 5744 5747 5749 5749 5751 5752 5754 5755 5758 5762 5765 5769
5683 5681 5679 5677 5675 5673 5672 5671 5669 5667 5666 5665 5664 5665 5668 5669 5670 5673 5675 5678 5683 5687 5695 5701 5703 5707 5711 5713 5715 5718 5718 5720 5723 5727 5729 5731 5733 5733 5734 5735 5736 5736 5738 5740 5741 5741 5742 5742 5746 5748 5751 5755 5758 5761
5673 5671 5669 5667 5665 5664 5663 5661 5660 5659 5658 5657 5657 5658 5660 5662 5664 5665 5667 5670 5674 5680 5689 5694 5696 5700 5704 5707 5709 5711 5712 5714 5718 5721 5724 5726 5728 5728 5729 5731 5731 5731 5731 5733 5735 5735 5736 5737 5740 5742 5745 5747 5750 5753
5664 5661 5659 5658 5656 5654 5652 5650 5650 5650 5650 5649 5649 5649 5652 5654 5656 5657 5658 5661 5665 5672 5680 5685 5689 5694 5698 5700 5703 5705 5707 5708 5712 5714 5717 5721 5723 5724 5726 5726 5726 5726 5726 5726 5727 5728 5731 5733 5735 5736 5738 5740 5743 5746
5653 5651 5650 5649 5648 5645 5642 5641 5641 5640 5640 5640 5640 5641 5643 5645 5645 5648 5651 5654 5660 5667 5672 5675 5681 5686 5691 5693 5696 5699 5699 5702 5704 5707 5713 5716 5718 5720 5721 5721 5722 5721 5721 5721 5721 5723 5726 5728 5730 5732 5733 5735 5737 5739
5642 5641 5639 5639 5637 5636 5634 5631 5631 5632 5631 5630 5630 5630 5633 5634 5640 5646 5649 5650 5653 5659 5664 5670 5675 5679 5684 5687 5688 5691 5694 5695 5697 5702 5707 5708 5711 5714 5716 5717 5718 5717 5717 5718 5719 5720 5722 5723 5726 5727 5729 5730 5732 5734
5629 5628 5628 5628 5628 5626 5625 5624 5622 5622 5621 5620 5621 5620 5625 5632 5635 5637 5640 5643 5647 5652 5658 5664 5668 5673 5676 5678 5682 5685 5686 5688 5693 5697 5700 5703 5704 5707 5710 5712 5713 5714 5714 5715 5716 5717 5718 5719 5721 5723 5724 5725 5727 5730
5618 5618 5618 5618 5618 5616 5616 5615 5613 5611 5610 5610 5611 5615 5622 5624 5627 5630 5633 5636 5641 5646 5650 5656 5661 5665 5667 5669 5673 5677 5681 5686 5688 5691 5694 5695 5697 5699 5702 5704 5707 5709 5710 5712 5712 5714 5715 5716 5717 5718 5720 5721 5723 5724
5606 5607 5608 5608 5607 5606 5605 5604 5602 5600 5599 5600 5605 5610 5612 5615 5618 5622 5625 5629 5633 5637 5642 5646 5651 5656 5659 5661 5667 5671 5676 5679 5682 5684 5687 5689 5690 5692 5694 5697 5699 5702 5704 5706 5708 5708 5710 5711 5713 5714 5715 5717 5720 5721
5595 5596 5596 5596 5595 5594 5593 5592 5590 5589 5590 5594 5598 5601 5602 5607 5610 5613 5616 5619 5624 5627 5632 5636 5641 5646 5651 5656 5661 5664 5668 5671 5673 5676 5678 5681 5683 5685 5686 5688 5691 5694 5696 5699 5701 5703 5703 5705 5707 5709 5711 5713 5715 5716
5584 5584 5584 5583 5583 5583 5582 5581 5580 5579 5583 5585 5589 5591 5593 5597 5600 5603 5606 5609 5613 5617 5621 5626 5631 5637 5644 5649 5653 5656 5659 5662 5664 5668 5671 5673 5676 5678 5680 5681 5684 5686 5689 5692 5694 5696 5698 5699 5701 5702 5704 5707 5709 5710
5572 5572 5572 5572 5572 5571 5570 5570 5571 5571 5573 5577 5579 5581 5583 5587 5590 5593 5595 5599 5603 5607 5612 5617 5623 5630 5634 5639 5643 5648 5651 5654 5657 5661 5664 5666 5668 5671 5672 5674 5676 5679 5682 5684 5686 5689 5691 5693 5694 5694 5696 5699 5702 5704
5560 5561 5561 5560 5560 5560 5560 5560 5561 5562 5564 5566 5568 5570 5573 5577 5580 5583 5586 5589 5593 5598 5604 5610 5614 5618 5625 5630 5635 5640 5643 5646 5649 5653 5656 5658 5661 5663 5665 5667 5669 5671 5674 5678 5680 5682 5684 5684 5685 5686 5686 5689 5692 5696
5549 5549 5549 5548 5549 5550 5551 5550 5551 5553 5554 5557 5558 5560 5563 5566 5569 5573 5576 5579 5584 5591 5595 5600 5605 5610 5615 5621 5626 5629 5634 5638 5642 5645 5648 5652 5655 5658 5660 5662 5664 5666 5668 5671 5673 5675 5676 5677 5677 5678 5680 5679 5681 5687
5540 5540 5540 5541 5541 5542 5543 5542 5543 5544 5544 5546 5547 5549 5552 5555 5559 5561 5565 5571 5576 5580 5583 5589 5596 5601 5606 5612 5616 5620 5626 5630 5634 5637 5641 5645 5648 5652 5654 5657 5659 5660 5663 5665 5667 5668 5669 5670 5670 5670 5673 5675 5679 5684
5531 5531 5532 5533 5534 5535 5535 5536 5536 5536 5536 5536 5537 5538 5541 5543 5547 5551 5556 5561 5566 5568 5574 5581 5587 5593 5599 5603 5609 5615 5620 5624 5627 5631 5635 5638 5641 5645 5647 5650 5653 5655 5657 5659 5662 5663 5664 5664 5665 5666 5669 5672 5676 5680
5524 5525 5526 5527 5527 5528 5528 5529 5529 5529 5529 5529 5529 5528 5529 5531 5536 5542 5546 5551 5555 5560 5566 5572 5579 5586 5592 5597 5601 5604 5608 5613 5617 5623 5628 5631 5635 5638 5641 5644 5647 5649 5652 5654 5656 5658 5659 5659 5660 5660 5662 5666 5671 5674
5518 5519 5520 5520 5520 5522 5522 5523 5523 5523 5523 5523 5523 5521 5521 5523 5527 5532 5535 5540 5546 5552 5558 5564 5571 5577 5583 5588 5592 5595 5599 5604 5610 5615 5619 5624 5629 5632 5635 5638 5642 5644 5647 5649 5651 5653 5655 5655 5655 5656 5658 5661 5664 5669
5512 5512 5513 5513 5514 5515 5516 5516 5517 5517 5517 5518 5518 5517 5516 5516 5519 5522 5526 5532 5539 5544 5550 5556 5562 5568 5573 5578 5582 5587 5592 5596 5602 5607 5612 5618 5622 5625 5629 5632 5636 5639 5642 5644 5646 5648 5650 5652 5652 5653 5656 5658 5661 5664
5508 5507 5507 5507 5507 5507 5508 5508 5509 5510 5510 5511 5511 5511 5512 5513 5515 5515 5518 5524 5530 5536 5542 5548 5554 5559 5564 5569 5573 5578 5583 5588 5593 5599 5605 5611 5614 5618 5622 5626 5629 5633 5636 5639 5641 5642 5644 5647 5649 5650 5651 5653 5656 5659
5505 5504 5502 5502 5500 5501 5502 5501 5502 5502 5503 5505 5507 5508 5510 5510 5510 5512 5514 5516 5521 5526 5532 5538 5543 5549 5555 5559 5564 5569 5574 5579 5585 5592 5598 5602 5606 5611 5615 5619 5622 5626 5630 5634 5636 5638 5640 5643 5645 5647 5648 5650 5652 5655
5503 5502 5500 5499 5498 5498 5497 5497 5497 5497 5497 5497 5498 5500 5501 5502 5503 5506 5508 5511 5514 5518 5523 5528 5533 5538 5544 5549 5553 5559 5565 5571 5578 5585 5590 5593 5598 5602 5607 5610 5614 5618 5623 5627 5631 5634 5636 5639 5641 5643 5645 5647 5648 5650
5501 5499 5498 5496 5495 5493 5493 5492 5491 5491 5490 5491 5492 5494 5494 5492 5492 5496 5500 5504 5508 5511 5516 5520 5525 5529 5534 5539 5545 5550 5556 5562 5569 5575 5581 5585 5590 5595 5600 5604 5608 5612 5616 5620 5625 5628 5631 5634 5636 5638 5640 5642 5644 5645
5500 5498 5495 5493 5491 5489 5487 5486 5485 5485 5484 5483 5482 5483 5484 5483 5485 5487 5490 5493 5497 5502 5508 5512 5516 5521 5526 5531 5536 5542 5548 5554 5561 5567 5573 5577 5582 5587 5592 5597 5601 5605 5610 5613 5616 5619 5623 5627 5631 5633 5635 5637 5639 5641
5500 5497 5494 5491 5489 5487 5486 5485 5482 5480 5478 5476 5475 5472 5471 5471 5473 5476 5478 5481 5485 5490 5495 5500 5506 5511 5516 5522 5528 5535 5540 5547 5554 5561 5566 5571 5575 5581 5586 5590 5595 5599 5603 5606 5610 5613 5617 5620 5623 5627 5629 5632 5634 5636